x

8461490 - New London, Ct (nlnc3) Weather Station

11:54am - Mon 22nd May 2017 All times are EDT. -4 hours from GMT.

  • Wind
    10mph, 16mph gusts
  • Sea Temp 54°f
  • Air Temp 56°f
  • Sea Pressure 1020.7mb
  • 8461490 - New London, Ct
  • 8461490 - New London, Ct

More Historic Weather Station data

Upgrade to MSW Pro to gain access to the past 30 days of data for over 8000 Wavebouys and Weather Stations around the globe.

Join Pro

Comparision Forecast

View Surf forecast
   
Mon 05/22 11:54am 10 16 mph 1020.7mb 54f 56f
11:48am 11 15 mph 1020.8mb 54f 56f
11:42am 11 14 mph 1020.8mb 54f 56f
11:36am 13 15 mph 1021mb 54f 56f
11:30am 9 13 mph 1021mb 54f 56f
11:24am 9 15 mph 1021mb 54f 56f
11:18am 10 15 mph 1021.1mb 54f 56f
11:12am 11 15 mph 1021.3mb 53f 55f
11:06am 11 14 mph 1021.5mb 54f 55f
11:00am 10 15 mph 1021.5mb 54f 55f
10:54am 9 14 mph 1021.6mb 53f 56f
10:48am 11 16 mph 1021.6mb 53f 55f
10:42am 11 15 mph 1021.5mb 53f 55f
10:36am 11 16 mph 1021.5mb 53f 55f
10:30am 13 17 mph 1021.5mb 53f 55f
10:24am 13 16 mph 1021.7mb 53f 55f
10:18am 11 17 mph 1021.9mb 53f 55f
10:12am 11 15 mph 1021.9mb 54f 55f
10:06am 10 14 mph 1022.1mb 54f 55f
10:00am 9 14 mph 1022.1mb 54f 55f
9:30am 9 13 mph 1022.2mb 53f 55f
9:24am 8 14 mph 1022.2mb 53f 54f
9:18am 9 13 mph 1022.2mb 53f 54f
9:12am 9 13 mph 1022.2mb 53f 54f
9:06am 8 13 mph 1022.2mb 53f 54f
9:00am 8 10 mph 1022.3mb 53f 54f
8:54am 9 11 mph 1022.2mb 53f 54f
8:48am 8 10 mph 1022.3mb 53f 54f
8:42am 8 9 mph 1022.4mb 53f 54f
8:36am 7 10 mph 1022.6mb 53f 54f
8:30am 9 11 mph 1022.6mb 53f 54f
8:24am 6 9 mph 1022.8mb 53f 54f
8:18am 7 9 mph 1022.8mb 53f 53f
8:12am 7 8 mph 1022.7mb 53f 53f
8:06am 6 8 mph 1022.9mb 53f 53f
8:00am 5 8 mph 1022.7mb 53f 53f
7:54am 6 9 mph 1022.7mb 53f 53f
7:48am 6 8 mph 1022.7mb 53f 53f
7:42am 6 9 mph 1022.8mb 53f 53f
7:36am 7 9 mph 1022.7mb 53f 53f
7:30am 7 8 mph 1022.7mb 53f 53f
7:24am 8 9 mph 1022.8mb 54f 53f
7:18am 6 10 mph 1022.7mb 54f 53f
7:12am 7 8 mph 1022.7mb 54f 53f
7:06am 7 9 mph 1022.7mb 54f 53f
7:00am 7 9 mph 1022.6mb 54f 53f
6:54am 6 9 mph 1022.8mb 54f 53f
6:48am 6 7 mph 1022.8mb 54f 53f
6:42am 6 7 mph 1022.8mb 54f 53f
6:36am 6 8 mph 1022.8mb 54f 53f
6:30am 7 9 mph 1022.8mb 54f 53f
6:24am 7 8 mph 1022.9mb 54f 53f
6:18am 6 7 mph 1023mb 54f 53f
6:12am 5 6 mph 1023.1mb 54f 53f
6:06am 5 7 mph 1023.1mb 54f 53f
6:00am 5 6 mph 1023.2mb 54f 53f
5:54am 3 5 mph 1023.3mb 54f 53f
5:48am 2 3 mph 1023.2mb 55f 53f
5:42am 3 6 mph 1023.3mb 55f 53f
5:36am 3 5 mph 1023.2mb 55f 53f
5:30am 3 5 mph 1023.1mb 55f 54f
5:24am 3 6 mph 1023.1mb 55f 53f
5:18am 5 6 mph 1023mb 55f 54f
5:12am 6 7 mph 1023mb 55f 54f
5:06am 6 8 mph 1023mb 56f 54f
5:00am 6 6 mph 1023.1mb 56f 55f
4:54am 5 6 mph 1023.2mb 56f 54f
4:48am 5 6 mph 1023.2mb 56f 54f
4:42am 5 6 mph 1023.2mb 56f 55f
4:36am 3 6 mph 1023.2mb 56f 55f
4:30am 3 6 mph 1023.2mb 56f 55f
4:24am 5 5 mph 1023.1mb 56f 54f
4:18am 3 6 mph 1023.1mb 57f 55f
4:12am 5 6 mph 1023.1mb 57f 55f
4:06am 3 5 mph 1023mb 57f 54f
4:00am 5 6 mph 1023mb 57f 55f
3:54am 3 5 mph 1023mb 57f 54f
3:48am 3 5 mph 1023.1mb 57f 55f
3:42am 3 5 mph 1023.1mb 57f 55f
3:36am 3 5 mph 1023.2mb 57f 55f
3:30am 2 5 mph 1023.3mb 58f 55f
3:24am 3 5 mph 1023.1mb 59f 55f
3:18am 2 6 mph 1023mb 60f 55f
3:12am 3 7 mph 1023.1mb 60f 55f
3:06am 5 6 mph 1023.1mb 61f 55f
3:00am 3 6 mph 1023.2mb 61f 55f
2:54am 6 7 mph 1023mb 61f 55f
2:48am 5 7 mph 1023.3mb 61f 55f
2:42am 6 8 mph 1023.3mb 61f 55f
2:36am 5 7 mph 1023.2mb 61f 55f
2:30am 5 8 mph 1023.3mb 61f 55f
2:24am 6 8 mph 1023.4mb 61f 55f
2:18am 6 8 mph 1023.5mb 61f 55f
2:12am 6 7 mph 1023.6mb 61f 55f
2:06am 6 7 mph 1023.6mb 62f 55f
2:00am 5 7 mph 1023.6mb 62f 55f
1:54am 5 7 mph 1023.6mb 62f 55f
1:48am 6 7 mph 1023.8mb 62f 55f
1:42am 6 6 mph 1023.7mb 62f 55f
1:36am 3 5 mph 1023.8mb 62f 55f
1:30am 5 6 mph 1023.8mb 62f 55f
1:24am 5 6 mph 1024mb 61f 55f
1:18am 5 6 mph 1024.1mb 61f 55f
1:12am 5 6 mph 1024.4mb 61f 55f
1:06am 3 7 mph 1024.2mb 61f 55f
1:00am 5 6 mph 1024.3mb 61f 55f
12:54am 5 7 mph 1024.3mb 60f 55f
12:48am 6 7 mph 1024.4mb 60f 55f
12:42am 6 7 mph 1024.4mb 60f 55f
12:36am 5 7 mph 1024.4mb 60f 56f
12:30am 5 7 mph 1024.5mb 60f 56f
12:24am 6 8 mph 1024.5mb 60f 56f
12:18am 6 9 mph 1024.6mb 60f 56f
12:12am 7 8 mph 1024.6mb 60f 56f
12:06am 7 8 mph 1024.8mb 60f 56f
12:00am 7 8 mph 1024.9mb 60f 56f
Sun 05/21 11:54pm 5 7 mph 1024.8mb 60f 56f
11:48pm 5 6 mph 1025mb 59f 56f
11:42pm 5 7 mph 1025.1mb 59f 56f
11:36pm 5 6 mph 1025mb 58f 56f
11:30pm 5 7 mph 1025mb 58f 56f
11:24pm 5 6 mph 1025.2mb 57f 56f
11:18pm 6 8 mph 1025.2mb 57f 56f
11:12pm 6 7 mph 1025.2mb 57f 56f
11:06pm 5 7 mph 1025.2mb 57f 56f
11:00pm 5 7 mph 1025.2mb 57f 56f
10:54pm 6 8 mph 1025.3mb 56f 56f
10:48pm 5 7 mph 1025.2mb 55f 57f
10:42pm 7 10 mph 1025.3mb 57f 57f
10:36pm 7 9 mph 1025.4mb 55f 57f
10:30pm 7 9 mph 1025.5mb 55f 57f
10:24pm 6 8 mph 1025.6mb 55f 57f
10:18pm 6 10 mph 1025.7mb 55f 57f
10:12pm 8 10 mph 1025.5mb 55f 57f
10:06pm 8 10 mph 1025.4mb 55f 57f
10:00pm 8 9 mph 1025.7mb 55f 57f
9:54pm 8 10 mph 1025.8mb 55f 57f
9:48pm 7 9 mph 1025.8mb 55f 57f
9:42pm 7 9 mph 1025.9mb 55f 57f
9:36pm 7 9 mph 1025.9mb 55f 57f
9:30pm 6 8 mph 1025.9mb 54f 57f
9:24pm 7 9 mph 1026mb 55f 57f
9:18pm 6 9 mph 1026mb 55f 58f
9:12pm 8 10 mph 1025.9mb 55f 57f
9:06pm 8 9 mph 1025.7mb 55f 57f
9:00pm 8 9 mph 1025.7mb 54f 57f
8:54pm 8 9 mph 1025.7mb 54f 57f
8:48pm 8 10 mph 1025.6mb 54f 57f
8:42pm 8 10 mph 1025.5mb 55f 57f
8:36pm 10 11 mph 1025.5mb 55f 57f
8:30pm 7 9 mph 1025.6mb 54f 58f
8:24pm 8 9 mph 1025.6mb 54f 58f
8:18pm 8 10 mph 1025.6mb 54f 58f
8:12pm 8 10 mph 1025.7mb 53f 58f
8:06pm 7 8 mph 1025.8mb 53f 58f
8:00pm 7 9 mph 1025.9mb 53f 59f
7:54pm 8 10 mph 1025.8mb 53f 59f
7:48pm 8 10 mph 1025.8mb 53f 59f
7:42pm 9 11 mph 1025.7mb 53f 58f
7:36pm 10 11 mph 1025.7mb 52f 58f
7:30pm 9 11 mph 1025.6mb 52f 58f
7:24pm 10 11 mph 1025.6mb 52f 58f
7:18pm 10 11 mph 1025.7mb 52f 59f
7:12pm 10 11 mph 1025.7mb 53f 59f
7:06pm 10 11 mph 1025.8mb 53f 60f
7:00pm 10 11 mph 1025.8mb 53f 59f
6:54pm 9 11 mph 1025.8mb 53f 60f
6:48pm 10 13 mph 1025.9mb 53f 59f
6:42pm 10 13 mph 1025.8mb 53f 59f
6:36pm 11 13 mph 1025.8mb 53f 59f
6:30pm 10 13 mph 1025.8mb 53f 60f
6:24pm 13 14 mph 1025.8mb 53f 59f
6:18pm 11 14 mph 1025.9mb 53f 60f
6:12pm 11 14 mph 1025.8mb 53f 60f
6:06pm 11 14 mph 1025.9mb 53f 60f
6:00pm 11 14 mph 1025.8mb 53f 60f
5:48pm 13 15 mph 1025.9mb 53f 60f
5:42pm 13 14 mph 1026mb 53f 60f
5:36pm 13 15 mph 1026.1mb 53f 60f
5:30pm 11 14 mph 1026.1mb 53f 61f
5:24pm 13 15 mph 1026.3mb 53f 60f
5:18pm 13 15 mph 1026.3mb 53f 60f
5:12pm 13 14 mph 1026.3mb 53f 61f
5:06pm 13 15 mph 1026.3mb 53f 61f
5:00pm 13 15 mph 1026.4mb 53f 61f
4:54pm 13 15 mph 1026.3mb 53f 61f
4:48pm 13 15 mph 1026.3mb 53f 61f
4:42pm 11 14 mph 1026.3mb 53f 61f
4:36pm 13 15 mph 1026.4mb 53f 61f
4:30pm 13 15 mph 1026.5mb 53f 61f
4:24pm 13 15 mph 1026.4mb 53f 61f
4:18pm 11 14 mph 1026.4mb 53f 62f
4:12pm 11 13 mph 1026.4mb 53f 62f
4:06pm 10 14 mph 1026.4mb 54f 62f
4:00pm 13 15 mph 1026.4mb 54f 62f
3:54pm 11 14 mph 1026.5mb 54f 62f
3:48pm 13 14 mph 1026.6mb 54f 61f
3:42pm 13 14 mph 1026.6mb 54f 62f
3:36pm 13 14 mph 1026.6mb 53f 63f
3:30pm 13 15 mph 1026.8mb 53f 63f
3:24pm 14 15 mph 1027mb 53f 63f
3:18pm 14 15 mph 1027mb 54f 63f
3:12pm 14 15 mph 1027.1mb 54f 64f
3:06pm 13 15 mph 1027.2mb 54f 63f
3:00pm 13 14 mph 1027.2mb 54f 63f
2:54pm 10 13 mph 1027.2mb 54f 63f
2:48pm 10 13 mph 1027mb 54f 63f
2:42pm 11 13 mph 1026.9mb 53f 63f
2:36pm 10 13 mph 1026.9mb 53f 62f
2:30pm 11 14 mph 1026.8mb 53f 62f
2:24pm 10 13 mph 1026.8mb 53f 62f
2:18pm 11 13 mph 1026.9mb 54f 63f
2:12pm 10 11 mph 1027mb 54f 63f
2:06pm 10 11 mph 1027.1mb 53f 62f
2:00pm 10 11 mph 1027.2mb 53f 63f
1:54pm 10 11 mph 1027.4mb 53f 63f
1:48pm 10 11 mph 1027.4mb 53f 62f
1:42pm 10 13 mph 1027.6mb 53f 62f
1:36pm 10 11 mph 1027.6mb 53f 62f
1:30pm 9 10 mph 1027.8mb 53f 63f
1:24pm 10 11 mph 1027.8mb 53f 62f
1:18pm 10 11 mph 1027.8mb 53f 62f
1:12pm 10 11 mph 1027.9mb 53f 63f
1:06pm 9 11 mph 1028mb 53f 62f
1:00pm 9 11 mph 1028.2mb 53f 62f
12:54pm 11 11 mph 1028mb 53f 62f
12:48pm 10 13 mph 1028.2mb 53f 62f
12:42pm 11 13 mph 1028.2mb 54f 63f
12:36pm 10 11 mph 1028.4mb 54f 62f
12:30pm 10 11 mph 1028.4mb 54f 62f
12:24pm 10 11 mph 1028.4mb 53f 62f
12:18pm 10 13 mph 1028.4mb 54f 62f
12:12pm 10 13 mph 1028.4mb 54f 62f
12:06pm 11 13 mph 1028.6mb 54f 62f
12:00pm 10 13 mph 1028.7mb 54f 62f
11:54am 11 13 mph 1028.7mb 54f 62f
11:48am 10 11 mph 1028.6mb 55f 62f
11:42am 10 13 mph 1028.7mb 54f 62f
11:36am 10 11 mph 1028.8mb 54f 61f
11:30am 10 13 mph 1028.8mb 54f 61f
11:24am 11 14 mph 1028.9mb 54f 61f
11:18am 11 14 mph 1028.9mb 54f 60f
11:12am 14 17 mph 1028.8mb 54f 60f
11:06am 8 11 mph 1028.8mb 53f 62f
11:00am 8 9 mph 1028.9mb 53f 62f
10:54am 8 10 mph 1028.9mb 53f 62f
10:48am 8 9 mph 1028.9mb 53f 62f
10:42am 9 9 mph 1028.9mb 53f 61f
10:36am 7 8 mph 1028.9mb 53f 62f
10:30am 6 7 mph 1028.9mb 53f 62f
10:24am 6 7 mph 1029mb 53f 62f
10:18am 6 7 mph 1029mb 53f 62f
10:12am 3 6 mph 1029.1mb 53f 62f
10:06am 5 6 mph 1029.2mb 53f 61f
10:00am 3 5 mph 1029.1mb 53f 61f
9:54am 2 2 mph 1029.1mb 53f 61f
9:48am 1 2 mph 1029mb 53f 60f
9:42am 2 3 mph 1028.9mb 53f 60f
9:36am 2 3 mph 1028.9mb 53f 60f
9:30am 2 2 mph 1028.9mb 53f 59f
9:24am 1 2 mph 1028.9mb 53f 59f
9:18am 2 3 mph 1028.8mb 53f 58f
9:12am 2 3 mph 1028.7mb 54f 57f
9:06am 2 3 mph 1028.7mb 54f 57f
9:00am 2 3 mph 1028.7mb 53f 57f
8:54am 2 3 mph 1028.5mb 53f 56f
8:48am 2 3 mph 1028.5mb 53f 56f
8:42am 3 5 mph 1028.5mb 53f 55f
8:36am 3 5 mph 1028.5mb 53f 55f
8:30am 3 3 mph 1028.6mb 53f 55f
8:24am 2 3 mph 1028.6mb 53f 55f
8:18am 1 2 mph 1028.6mb 53f 56f
8:12am 2 3 mph 1028.7mb 53f 54f
8:06am 2 3 mph 1028.8mb 53f 55f
8:00am 2 5 mph 1028.9mb 53f 55f
7:54am 3 3 mph 1029mb 53f 54f
7:48am 3 5 mph 1029mb 53f 53f
7:42am 3 6 mph 1029mb 53f 53f
7:36am 5 6 mph 1029mb 53f 53f
7:30am 5 8 mph 1028.9mb 53f 52f
7:24am 5 7 mph 1028.9mb 53f 53f
7:18am 5 7 mph 1028.9mb 53f 52f
7:12am 6 8 mph 1028.9mb 53f 51f
7:06am 6 8 mph 1029mb 53f 51f
7:00am 3 7 mph 1028.8mb 53f 51f
6:54am 5 6 mph 1028.7mb 53f 51f
6:48am 3 7 mph 1028.7mb 53f 51f
6:42am 5 6 mph 1028.7mb 53f 50f
6:36am 5 7 mph 1028.7mb 53f 50f
6:30am 6 7 mph 1028.7mb 52f 49f
6:24am 6 8 mph 1028.6mb 52f 49f
6:18am 6 8 mph 1028.6mb 53f 49f
6:12am 6 7 mph 1028.6mb 53f 48f
6:06am 6 8 mph 1028.5mb 53f 48f
6:00am 6 7 mph 1028.4mb 53f 48f
5:54am 6 8 mph 1028.2mb 53f 48f
5:48am 6 7 mph 1028.2mb 53f 47f
5:42am 6 7 mph 1028.2mb 53f 47f
5:36am 6 7 mph 1028.1mb 53f 47f
5:30am 6 8 mph 1027.9mb 53f 47f
5:24am 6 8 mph 1027.8mb 53f 47f
5:18am 6 7 mph 1027.7mb 53f 47f
5:12am 5 7 mph 1027.6mb 53f 48f
5:06am 6 8 mph 1027.6mb 53f 48f
5:00am 6 7 mph 1027.5mb 53f 48f
4:54am 5 7 mph 1027.5mb 53f 48f
4:48am 6 7 mph 1027.4mb 54f 48f
4:42am 2 6 mph 1027.4mb 54f 48f
4:36am 5 6 mph 1027.4mb 54f 48f
4:30am 5 7 mph 1027.3mb 54f 48f
4:24am 5 6 mph 1027.3mb 54f 49f
4:18am 5 6 mph 1027.4mb 54f 49f
4:12am 5 6 mph 1027.3mb 54f 49f
4:06am 5 6 mph 1027.4mb 54f 49f
4:00am 6 7 mph 1027.3mb 54f 49f
3:54am 5 6 mph 1027.4mb 54f 49f
3:48am 5 7 mph 1027.4mb 55f 49f
3:42am 6 6 mph 1027.5mb 55f 49f
3:36am 3 6 mph 1027.5mb 55f 49f
3:30am 5 5 mph 1027.5mb 55f 49f
3:24am 3 5 mph 1027.5mb 55f 49f
3:18am 2 5 mph 1027.5mb 55f 49f
3:12am 2 5 mph 1027.4mb 55f 50f
3:06am 2 3 mph 1027.4mb 55f 50f
3:00am 3 5 mph 1027.4mb 56f 50f
2:54am 3 5 mph 1027.3mb 56f 50f
2:48am 3 3 mph 1027.3mb 56f 50f
2:42am 2 3 mph 1027.3mb 56f 50f
2:36am 3 3 mph 1027.2mb 56f 50f
2:30am 2 3 mph 1027.1mb 57f 50f
2:24am 1 3 mph 1027.1mb 58f 50f
2:18am 2 3 mph 1027.2mb 58f 50f
2:12am 2 3 mph 1027.3mb 59f 50f
2:06am 2 3 mph 1027.5mb 59f 50f
2:00am 2 3 mph 1027.6mb 59f 51f
1:54am 2 3 mph 1027.5mb 60f 51f
1:48am 2 3 mph 1027.6mb 60f 51f
1:42am 2 3 mph 1027.5mb 60f 51f
1:36am 2 2 mph 1027.5mb 60f 51f
1:24am 1 2 mph 1027.5mb 60f 51f
1:18am  -  3 mph 1027.5mb 60f 51f
1:12am 1 2 mph 1027.7mb 60f 51f
1:06am  -  2 mph 1027.7mb 60f 51f
1:00am 1 1 mph 1027.7mb 60f 51f
12:54am 1 2 mph 1027.6mb 60f 52f
12:48am 1 2 mph 1027.6mb 60f 52f
12:42am 2 2 mph 1027.6mb 60f 52f
12:36am 2 2 mph 1027.7mb 60f 52f
12:30am 2 3 mph 1027.5mb 60f 53f
12:24am 2 3 mph 1027.6mb 60f 53f
12:18am 3 5 mph 1027.6mb 59f 53f
12:12am 2 5 mph 1027.5mb 59f 53f
12:06am 3 5 mph 1027.5mb 58f 53f
12:00am 2 3 mph 1027.5mb 58f 53f
Sat 05/20 11:54pm 2 3 mph 1027.3mb 58f 53f
11:48pm 3 5 mph 1027.3mb 58f 53f
11:42pm 2 3 mph 1027.3mb 58f 54f
11:36pm 2 5 mph 1027.2mb 57f 54f
11:30pm 3 6 mph 1027.1mb 58f 54f
11:24pm 5 6 mph 1027.1mb 57f 54f
11:18pm 3 6 mph 1027mb 57f 54f
11:12pm 3 5 mph 1027.1mb 57f 54f
11:06pm 3 6 mph 1027.1mb 57f 54f
11:00pm 5 7 mph 1027.2mb 57f 54f
10:54pm 5 6 mph 1027.2mb 57f 54f
10:48pm 5 7 mph 1027.2mb 57f 54f
10:42pm 6 7 mph 1027.3mb 56f 54f
10:36pm 6 8 mph 1027.3mb 56f 54f
10:30pm 6 7 mph 1027.3mb 56f 55f
10:24pm 5 7 mph 1027.2mb 56f 55f
10:18pm 6 7 mph 1027.3mb 56f 55f
10:12pm 6 8 mph 1027.2mb 55f 55f
10:06pm 6 8 mph 1027.1mb 55f 55f
10:00pm 6 8 mph 1027mb 54f 55f
9:54pm 7 8 mph 1027mb 53f 55f
9:48pm 7 8 mph 1027mb 53f 55f
9:42pm 7 9 mph 1026.9mb 53f 55f
9:36pm 7 9 mph 1026.9mb 53f 55f
9:30pm 7 10 mph 1026.8mb 53f 55f
9:24pm 8 11 mph 1026.8mb 53f 55f
9:18pm 8 9 mph 1026.7mb 53f 55f
9:12pm 9 11 mph 1026.7mb 54f 55f
9:06pm 8 11 mph 1026.7mb 54f 55f
9:00pm 9 10 mph 1026.7mb 54f 55f
8:54pm 9 10 mph 1026.5mb 54f 55f
8:48pm 9 11 mph 1026.5mb 54f 56f
8:42pm 9 11 mph 1026.4mb 53f 56f
8:36pm 10 13 mph 1026.4mb 53f 56f
8:30pm 9 11 mph 1026.4mb 53f 56f
8:24pm 9 11 mph 1026.3mb 54f 56f
8:18pm 7 10 mph 1026.3mb 54f 56f
8:12pm 8 10 mph 1026.2mb 54f 57f
8:06pm 8 10 mph 1026.2mb 53f 57f
8:00pm 7 10 mph 1026.2mb 54f 57f
7:54pm 8 10 mph 1026.1mb 54f 57f
7:48pm 8 10 mph 1026mb 53f 56f
7:42pm 9 11 mph 1025.9mb 53f 56f
7:36pm 9 10 mph 1025.9mb 52f 57f
7:30pm 9 11 mph 1025.9mb 52f 57f
7:24pm 8 11 mph 1025.8mb 52f 58f
7:18pm 9 11 mph 1025.8mb 52f 58f
7:12pm 10 13 mph 1025.7mb 52f 58f
7:06pm 11 13 mph 1025.8mb 52f 58f
7:00pm 10 13 mph 1025.7mb 52f 59f
6:54pm 10 11 mph 1025.7mb 53f 59f
6:48pm 9 11 mph 1025.7mb 53f 60f
6:42pm 9 10 mph 1025.6mb 53f 60f
6:36pm 9 10 mph 1025.6mb 53f 60f
6:30pm 8 10 mph 1025.6mb 54f 60f
6:24pm 8 10 mph 1025.7mb 53f 60f
6:18pm 7 11 mph 1025.7mb 53f 61f
6:12pm 9 11 mph 1025.6mb 53f 60f
6:06pm 10 14 mph 1025.6mb 53f 60f
6:00pm 10 14 mph 1025.6mb 53f 61f
5:54pm 10 13 mph 1025.6mb 53f 60f
5:48pm 10 13 mph 1025.7mb 53f 61f
5:42pm 10 11 mph 1025.6mb 53f 60f
5:36pm 9 11 mph 1025.6mb 53f 61f
5:30pm 11 14 mph 1025.6mb 53f 61f
5:24pm 11 13 mph 1025.6mb 53f 61f
5:18pm 10 11 mph 1025.6mb 53f 60f
5:12pm 10 13 mph 1025.7mb 53f 61f
5:06pm 10 13 mph 1025.7mb 53f 61f
5:00pm 11 13 mph 1025.7mb 53f 61f
4:54pm 10 13 mph 1025.6mb 53f 61f
4:48pm 9 11 mph 1025.6mb 53f 61f
4:42pm 10 13 mph 1025.5mb 52f 62f
4:36pm 10 13 mph 1025.4mb 53f 61f
4:30pm 10 13 mph 1025.4mb 52f 61f
4:24pm 10 13 mph 1025.3mb 52f 60f
4:18pm 10 13 mph 1025.4mb 52f 61f
4:12pm 10 13 mph 1025.4mb 52f 61f
4:06pm 11 14 mph 1025.3mb 52f 60f
4:00pm 10 14 mph 1025.3mb 52f 60f
3:54pm 10 14 mph 1025.3mb 52f 60f
3:48pm 10 14 mph 1025.4mb 52f 61f
3:42pm 11 14 mph 1025.3mb 52f 61f
3:36pm 11 14 mph 1025.4mb 52f 61f
3:30pm 11 14 mph 1025.3mb 52f 60f
3:24pm 13 15 mph 1025.5mb 52f 61f
3:18pm 11 14 mph 1025.4mb 52f 62f
3:12pm 14 15 mph 1025.5mb 52f 60f
3:06pm 13 16 mph 1025.5mb 52f 61f
3:00pm 14 15 mph 1025.4mb 51f 61f
2:54pm 13 15 mph 1025.3mb 51f 61f
2:48pm 13 17 mph 1025.4mb 52f 61f
2:42pm 14 16 mph 1025.3mb 51f 61f
2:36pm 15 17 mph 1025.4mb 51f 60f
2:30pm 15 17 mph 1025.4mb 52f 60f
2:24pm 15 17 mph 1025.4mb 52f 60f
2:18pm 15 17 mph 1025.2mb 52f 60f
2:12pm 14 16 mph 1025.2mb 52f 59f
2:06pm 13 15 mph 1025.2mb 52f 60f
2:00pm 13 15 mph 1025.2mb 52f 61f
1:54pm 11 14 mph 1025.3mb 52f 60f
1:48pm 13 15 mph 1025.2mb 52f 60f
1:42pm 11 15 mph 1025.1mb 52f 60f
1:36pm 13 16 mph 1025.1mb 52f 62f
1:30pm 10 13 mph 1025mb 52f 62f
1:24pm 9 13 mph 1025mb 52f 64f
1:18pm 7 10 mph 1025mb 52f 62f
1:12pm 3 6 mph 1025.1mb 52f 63f
1:06pm 2 7 mph 1025mb 52f 65f
1:00pm 2 5 mph 1025mb 52f 63f
12:54pm 1 7 mph 1025mb 52f 64f
12:48pm 5 6 mph 1025.1mb 52f 62f
12:42pm 1 3 mph 1025.1mb 52f 63f
12:36pm 2 7 mph 1025.1mb 52f 62f
12:24pm 5 7 mph 1025.1mb 52f 61f
12:18pm 3 8 mph 1025.1mb 53f 61f
12:12pm 6 8 mph 1025.2mb 53f 61f
12:06pm 5 7 mph 1025.2mb 53f 61f
12:00pm 3 5 mph 1025.3mb 53f 61f
11:54am 2 5 mph 1025.2mb 53f 61f
11:48am 2 8 mph 1025.2mb 53f 61f
11:42am 3 5 mph 1025.1mb 53f 60f
11:36am 3 6 mph 1025.2mb 53f 60f
11:30am 3 5 mph 1025mb 53f 60f
11:24am 2 5 mph 1025.2mb 53f 60f
11:18am 3 6 mph 1025.2mb 53f 59f
11:12am 3 5 mph 1025.1mb 53f 59f
11:06am 3 7 mph 1025.1mb 53f 59f
11:00am 3 6 mph 1025.3mb 53f 59f
10:54am 5 7 mph 1025.2mb 53f 58f
10:48am 3 7 mph 1025.3mb 54f 59f
10:42am 2 7 mph 1025.3mb 53f 59f
10:36am 3 7 mph 1025.2mb 53f 58f
10:30am 5 6 mph 1025.2mb 53f 58f
10:24am 3 6 mph 1025.3mb 53f 58f
10:18am 5 6 mph 1025.3mb 53f 58f
10:12am 1 8 mph 1025.2mb 53f 58f
10:06am 3 7 mph 1025.1mb 52f 58f
10:00am 5 7 mph 1025mb 53f 58f
9:54am 3 6 mph 1024.9mb 52f 58f
9:48am 2 7 mph 1024.9mb 52f 58f
9:36am 5 9 mph 1024.7mb 52f 58f
9:30am 3 7 mph 1024.8mb 53f 58f
9:24am 3 8 mph 1024.7mb 53f 59f
9:18am 6 8 mph 1024.5mb 52f 59f
9:12am 5 9 mph 1024.6mb 53f 59f
9:06am 6 8 mph 1024.6mb 53f 58f
9:00am 6 9 mph 1024.6mb 52f 59f
8:54am 6 8 mph 1024.7mb 53f 59f
8:48am 6 9 mph 1024.6mb 53f 58f
8:42am 2 8 mph 1024.5mb 53f 59f
8:36am 6 9 mph 1024.4mb 52f 58f
8:30am 5 8 mph 1024.4mb 53f 58f
8:24am 5 8 mph 1024.5mb 52f 58f
8:18am 5 8 mph 1024.3mb 52f 58f
8:12am 6 7 mph 1024.3mb 52f 58f
8:06am 5 7 mph 1024.3mb 52f 58f
8:00am 3 7 mph 1024.2mb 52f 58f
7:54am 6 9 mph 1023.8mb 52f 57f
7:48am 5 8 mph 1023.5mb 52f 57f
7:42am 3 8 mph 1023.6mb 52f 57f
7:36am 3 6 mph 1023.5mb 52f 57f
7:30am 3 8 mph 1023.4mb 52f 57f
7:24am 5 8 mph 1023.3mb 52f 57f
7:18am 5 7 mph 1023.4mb 52f 57f
7:12am 2 6 mph 1023.3mb 52f 57f
7:06am 2 7 mph 1023mb 52f 57f
7:00am 3 6 mph 1023mb 53f 57f
6:54am 3 6 mph 1022.9mb 53f 57f
6:48am 5 6 mph 1022.7mb 53f 57f
6:42am 5 6 mph 1022.7mb 52f 57f
6:36am 3 6 mph 1022.5mb 52f 57f
6:30am 5 7 mph 1022.5mb 52f 57f
6:24am 3 6 mph 1022.3mb 52f 57f
6:18am 3 6 mph 1022.5mb 52f 57f
6:12am 5 6 mph 1022.2mb 52f 57f
6:06am 3 7 mph 1022.4mb 52f 57f
6:00am 3 6 mph 1022.1mb 52f 57f
5:54am 5 6 mph 1021.9mb 52f 57f
5:48am 5 6 mph 1021.8mb 52f 57f
5:42am 3 7 mph 1021.7mb 52f 58f
5:36am 3 6 mph 1021.6mb 52f 58f
5:30am 3 6 mph 1021.4mb 52f 58f
5:24am 1 7 mph 1021.3mb 52f 58f
5:18am 6 8 mph 1021.2mb 52f 58f
5:12am 2 7 mph 1020.9mb 52f 58f
5:06am 5 8 mph 1020.6mb 53f 58f
5:00am 5 8 mph 1020.6mb 53f 58f
4:54am 6 8 mph 1020.6mb 53f 58f
4:48am 3 8 mph 1020.6mb 53f 58f
4:42am 6 8 mph 1020.4mb 53f 58f
4:36am 3 8 mph 1020.3mb 53f 58f
4:30am 6 9 mph 1020.1mb 53f 58f
4:24am 6 8 mph 1020.1mb 53f 58f
4:18am 2 8 mph 1020mb 53f 59f
4:12am 3 7 mph 1019.8mb 53f 59f
4:06am 2 7 mph 1019.7mb 53f 59f
4:00am 3 9 mph 1019.6mb 53f 59f
3:54am 3 9 mph 1019.4mb 53f 59f
3:48am 5 9 mph 1019.2mb 53f 59f
3:42am 5 11 mph 1019.1mb 53f 60f
3:36am 6 14 mph 1019.1mb 53f 60f
3:30am 8 13 mph 1019.2mb 53f 60f
3:24am 8 14 mph 1019.2mb 52f 60f
3:18am 10 14 mph 1019.3mb 52f 60f
3:12am 6 14 mph 1019.3mb 52f 60f
3:06am 7 14 mph 1019.1mb 52f 60f
3:00am 6 13 mph 1019.1mb 53f 61f
2:54am 5 13 mph 1019.1mb 53f 61f
2:48am 6 10 mph 1019mb 53f -
2:42am 8 14 mph 1019mb 53f -
2:36am 5 11 mph 1018.8mb 53f -
2:30am 5 10 mph 1018.7mb 53f 62f
2:24am 2 10 mph 1018.8mb 54f 62f
2:18am 5 14 mph 1018.8mb 54f 62f
2:12am 6 14 mph 1018.6mb 54f 62f
2:06am 3 8 mph 1018.7mb 55f 62f
2:00am 5 10 mph 1018.4mb 55f 62f
1:54am 3 17 mph 1018.5mb 56f 63f
1:48am 9 16 mph 1018.5mb 56f -
1:42am 6 11 mph 1018.5mb 56f -
1:36am 3 9 mph 1018.2mb 57f -
1:30am 8 15 mph 1018mb 57f 64f
1:24am 8 15 mph 1018.2mb 58f 64f
1:18am 6 18 mph 1018.3mb 58f 64f
1:12am 7 17 mph 1018.2mb 58f 65f
1:06am 3 11 mph 1018.2mb 58f 65f
1:00am 6 9 mph 1018.3mb 58f 66f
12:54am 6 10 mph 1018.1mb 58f 66f
12:48am 3 7 mph 1018mb 59f 67f
12:42am 5 8 mph 1018mb 59f 67f
12:36am 7 10 mph 1017.9mb 59f 67f
12:30am 5 9 mph 1018mb 59f 67f
12:24am 3 9 mph 1017.9mb 59f 68f
12:18am 5 8 mph 1017.8mb 59f 68f
12:12am 5 9 mph 1017.5mb 59f 68f
12:06am 3 8 mph 1017.3mb 59f 68f
12:00am 5 9 mph 1017.2mb 59f 69f
Fri 05/19 11:54pm 3 8 mph 1017mb 59f 69f
11:48pm 5 10 mph 1017.1mb 58f 69f
11:42pm 7 10 mph 1017mb 57f 69f
11:36pm 6 10 mph 1016.9mb 57f 69f
11:30pm 6 11 mph 1016.7mb 58f 70f
11:24pm 6 11 mph 1016.7mb 58f 70f
11:18pm 6 9 mph 1016.5mb 59f 70f
11:12pm 5 11 mph 1016.2mb 58f 71f
11:06pm 3 9 mph 1015.8mb 59f 71f
11:00pm 3 13 mph 1015.5mb 59f 71f
10:54pm 6 11 mph 1015.2mb 57f 71f
10:48pm 7 14 mph 1015.2mb 57f 72f
10:42pm 8 14 mph 1015.1mb 57f 72f
10:36pm 6 13 mph 1015mb 57f 72f
10:30pm 9 15 mph 1014.8mb 57f 72f
10:24pm 8 14 mph 1014.6mb 58f 73f
10:18pm 9 13 mph 1014.6mb 59f 73f
10:12pm 9 15 mph 1014.5mb 59f 73f
10:06pm 10 14 mph 1014.5mb 57f 73f
10:00pm 10 15 mph 1014.4mb 57f 73f
9:54pm 11 16 mph 1014.3mb 58f 73f
9:48pm 9 16 mph 1014.1mb 58f 74f
9:42pm 10 15 mph 1014.1mb 58f 74f
9:36pm 10 14 mph 1014.1mb 56f 74f
9:30pm 7 13 mph 1014mb 56f 74f
9:24pm 9 16 mph 1013.9mb 56f 75f
9:18pm 8 15 mph 1013.7mb 56f 75f
9:12pm 7 13 mph 1013.7mb 55f 75f
9:06pm 11 17 mph 1013.6mb 54f 76f
9:00pm 8 14 mph 1013.5mb 54f 76f
8:54pm 8 21 mph 1013.3mb 54f 76f
8:48pm 9 17 mph 1013.1mb 54f 76f
8:42pm 8 16 mph 1013mb 54f 77f
8:36pm 10 16 mph 1012.8mb 54f 78f
8:30pm 10 16 mph 1012.6mb 53f 78f
8:24pm 9 15 mph 1012.3mb 53f 78f
8:18pm 9 15 mph 1012.2mb 53f 79f
8:12pm 10 14 mph 1012.2mb 53f 79f
8:06pm 10 14 mph 1012.2mb 53f 80f
8:00pm 13 17 mph 1012.1mb 53f 80f
7:54pm 14 22 mph 1011.9mb 53f 81f
7:48pm 14 23 mph 1011.7mb 53f 80f
7:42pm 14 18 mph 1011.5mb 53f 82f
7:36pm 9 14 mph 1011.3mb 53f 82f
7:30pm 3 6 mph 1011.2mb 53f 81f
7:24pm 3 8 mph 1011.1mb 53f 82f
7:18pm 5 13 mph 1011mb 53f 82f
7:12pm 7 11 mph 1010.9mb 53f 82f
7:06pm 6 9 mph 1010.5mb 53f 82f
7:00pm 10 13 mph 1010.3mb 53f 82f
6:54pm 6 11 mph 1010.4mb 53f 83f
6:48pm 7 13 mph 1010.3mb 53f 82f
6:42pm 6 11 mph 1010.2mb 53f 83f
6:36pm 7 11 mph 1010.2mb 52f 83f
6:30pm 8 13 mph 1010mb 52f 83f
6:24pm 7 11 mph 1009.9mb 52f 83f
6:18pm 10 18 mph 1009.7mb 52f 82f
6:12pm 9 16 mph 1009.7mb 52f 83f
6:06pm 10 18 mph 1009.6mb 52f 83f
6:00pm 10 17 mph 1009.6mb 52f 84f
5:54pm 10 16 mph 1009.6mb 52f 84f
5:48pm 13 16 mph 1009.5mb 52f 85f
5:42pm 9 16 mph 1009.4mb 52f 88f
5:36pm 9 16 mph 1009.2mb 53f 89f
5:30pm 13 16 mph 1009.2mb 53f 89f
5:24pm 9 15 mph 1009.3mb 53f 89f
5:18pm 10 15 mph 1009.3mb 53f 89f
5:12pm 9 15 mph 1009.4mb 53f 89f
5:06pm 9 17 mph 1009.4mb 53f 89f
5:00pm 8 15 mph 1009.4mb 52f 90f
4:54pm 14 17 mph 1009.4mb 52f 89f
4:48pm 9 16 mph 1009.3mb 52f 90f
4:42pm 10 16 mph 1009.2mb 53f 90f
4:36pm 9 16 mph 1009.1mb 53f 90f
4:30pm 8 17 mph 1009.1mb 52f 90f
4:24pm 8 17 mph 1009.1mb 52f 90f
4:18pm 10 20 mph 1009mb 53f 91f
4:12pm 8 14 mph 1009.1mb 53f 90f
4:06pm 9 16 mph 1009.1mb 52f 90f
4:00pm 8 16 mph 1009.2mb 53f 90f
3:54pm 10 16 mph 1009.2mb 53f 90f
3:48pm 8 16 mph 1009.3mb 53f 90f
3:42pm 11 18 mph 1009.3mb 53f 89f
3:36pm 10 18 mph 1009.2mb 53f 89f
3:30pm 13 21 mph 1009.2mb 53f 89f
3:24pm 10 18 mph 1009.2mb 53f 89f
3:18pm 11 18 mph 1009.2mb 54f 89f
3:12pm 10 16 mph 1009.2mb 53f 89f
3:06pm 10 17 mph 1009.2mb 54f 89f
3:00pm 10 20 mph 1009.2mb 53f 89f
2:54pm 11 16 mph 1009.3mb 54f 89f
2:48pm 10 20 mph 1009.2mb 54f 89f
2:42pm 14 20 mph 1009.2mb 54f 88f
2:36pm 11 17 mph 1009.3mb 53f 88f
2:30pm 13 22 mph 1009.3mb 53f 88f
2:24pm 13 20 mph 1009.4mb 54f 87f
2:18pm 14 21 mph 1009.4mb 54f 87f
2:12pm 15 21 mph 1009.4mb 54f 87f
2:06pm 10 23 mph 1009.4mb 54f 88f
2:00pm 15 22 mph 1009.3mb 54f 86f
1:54pm 11 18 mph 1009.4mb 54f 87f
1:48pm 13 22 mph 1009.3mb 54f 86f
1:42pm 11 18 mph 1009.4mb 54f 87f
1:36pm 11 24 mph 1009.4mb 54f 87f
1:30pm 13 22 mph 1009.5mb 55f 86f
1:24pm 15 21 mph 1009.5mb 54f 86f
1:18pm 13 22 mph 1009.6mb 54f 86f
1:12pm 14 21 mph 1009.6mb 54f 85f
1:06pm 14 21 mph 1009.6mb 54f 85f
1:00pm 13 21 mph 1009.6mb 54f 85f
12:54pm 9 20 mph 1009.7mb 55f 86f
12:48pm 14 20 mph 1009.7mb 54f 85f
12:42pm 11 16 mph 1009.7mb 52f 86f
12:36pm 8 17 mph 1009.8mb 52f 86f
12:30pm 14 22 mph 1009.8mb 52f 85f
12:24pm 7 18 mph 1009.9mb 53f 85f
12:18pm 14 18 mph 1009.9mb 53f 85f
12:12pm 13 16 mph 1010mb 53f 85f
12:06pm 10 16 mph 1010mb 54f 84f
12:00pm 13 17 mph 1010.1mb 54f 84f
11:54am 10 15 mph 1010.1mb 55f 83f
11:48am 10 15 mph 1010.1mb 55f 84f
11:42am 11 16 mph 1010.1mb 55f 84f
11:36am 9 13 mph 1010.2mb 56f 84f
11:30am 7 14 mph 1010.2mb 56f 85f
11:24am 10 14 mph 1010.3mb 56f 84f
11:18am 10 13 mph 1010.3mb 55f 84f
11:12am 9 13 mph 1010.3mb 55f 83f
11:06am 8 10 mph 1010.3mb 55f 83f
11:00am 8 13 mph 1010.3mb 56f 83f
10:54am 8 13 mph 1010.4mb 55f 83f
10:48am 8 13 mph 1010.4mb 56f 83f
10:42am 8 11 mph 1010.5mb 55f 82f
10:36am 7 10 mph 1010.6mb 56f 83f
10:30am 9 14 mph 1010.6mb 56f 82f
10:24am 7 10 mph 1010.6mb 56f 82f
10:18am 6 9 mph 1010.6mb 57f 77f
10:12am 5 8 mph 1010.7mb 56f 80f
10:06am 6 11 mph 1010.6mb 54f 85f
10:00am 7 10 mph 1010.7mb 55f 85f
9:54am 6 11 mph 1010.7mb 57f 84f
9:48am 7 13 mph 1010.8mb 56f 84f
9:42am 3 9 mph 1010.9mb 55f 84f
9:36am 7 13 mph 1010.8mb 56f 83f
9:30am 6 11 mph 1010.9mb 55f 82f
9:24am 5 9 mph 1011mb 54f 82f
9:18am 6 11 mph 1010.9mb 55f 82f
9:12am 6 8 mph 1011mb 53f 81f
9:06am 6 10 mph 1011mb 54f 80f
9:00am 7 10 mph 1011mb 53f 80f
8:54am 6 10 mph 1011mb 53f 80f
8:48am 5 10 mph 1011.1mb 53f 79f
8:42am 6 11 mph 1011mb 53f 78f
8:36am 7 11 mph 1011mb 52f 78f
8:30am 8 11 mph 1010.9mb 52f 78f
8:24am 8 11 mph 1010.9mb 52f 77f
8:18am 5 10 mph 1010.9mb 52f 77f
8:12am 6 10 mph 1010.9mb 53f 76f
8:06am 6 10 mph 1011mb 53f 76f
8:00am 7 11 mph 1010.9mb 54f 76f
7:54am 8 13 mph 1010.7mb 53f 75f
7:48am 6 10 mph 1010.8mb 53f 75f
7:42am 7 11 mph 1010.8mb 53f 74f
7:36am 7 10 mph 1010.7mb 52f 74f
7:30am 6 9 mph 1010.8mb 53f 74f
7:24am 7 10 mph 1010.7mb 53f 73f
7:18am 5 8 mph 1010.8mb 53f 73f
7:12am 6 9 mph 1010.8mb 53f 73f
7:06am 5 8 mph 1010.8mb 53f 73f
7:00am 5 7 mph 1010.8mb 52f 72f
6:54am 6 8 mph 1010.8mb 52f 72f
6:48am 2 5 mph 1010.8mb 53f 72f
6:42am 3 6 mph 1010.8mb 52f 72f
6:36am 2 6 mph 1010.7mb 52f 72f
6:30am 2 7 mph 1010.5mb 52f 71f
6:24am 5 8 mph 1010.5mb 52f 70f
6:18am 5 7 mph 1010.5mb 52f 70f
6:12am 3 6 mph 1010.5mb 52f 70f
6:06am 2 7 mph 1010.3mb 52f 70f
6:00am 3 5 mph 1010.2mb 52f 69f
5:54am 3 6 mph 1010.2mb 52f 68f
5:48am 3 6 mph 1009.9mb 52f 68f
5:42am 2 5 mph 1009.9mb 52f 68f
5:36am 2 3 mph 1009.8mb 52f 67f
5:30am 2 3 mph 1009.8mb 52f 67f
5:24am 3 5 mph 1009.7mb 52f 68f
5:18am 2 5 mph 1009.7mb 52f 68f
5:12am 3 5 mph 1009.7mb 52f 67f
5:06am 2 3 mph 1009.8mb 52f 68f
5:00am 2 5 mph 1009.8mb 52f 68f
4:54am 5 6 mph 1009.8mb 51f 68f
4:48am 3 7 mph 1009.7mb 51f 68f
4:42am 3 6 mph 1009.6mb 51f 68f
4:36am 2 5 mph 1009.7mb 51f 68f
4:30am 3 7 mph 1009.6mb 52f 68f
4:24am 3 6 mph 1009.6mb 52f 68f
4:18am 5 7 mph 1009.7mb 52f 68f
4:12am 3 6 mph 1009.7mb 51f 68f
4:06am 5 7 mph 1009.6mb 51f 69f
4:00am 3 8 mph 1009.6mb 51f 69f
3:54am 5 7 mph 1009.7mb 51f 69f
3:48am 3 6 mph 1009.7mb 51f 69f
3:42am 3 6 mph 1009.7mb 51f 70f
3:36am 5 9 mph 1009.7mb 51f 70f
3:30am 6 7 mph 1009.7mb 51f 70f
3:24am 5 7 mph 1009.8mb 51f 71f
3:18am 6 7 mph 1009.8mb 51f 71f
3:12am 5 7 mph 1009.8mb 51f 71f
3:06am 5 8 mph 1009.8mb 51f 72f
3:00am 6 8 mph 1009.8mb 51f 72f
2:54am 5 10 mph 1009.7mb 52f 72f
2:48am 6 9 mph 1009.7mb 52f 72f
2:42am 3 6 mph 1009.8mb 52f 71f
2:36am 2 5 mph 1009.8mb 52f 70f
2:30am 2 5 mph 1009.8mb 53f 69f
2:24am 2 3 mph 1009.9mb 53f 69f
2:18am 2 3 mph 1009.9mb 52f 70f
2:12am 2 3 mph 1010mb 52f 70f
2:06am  -  6 mph 1010.2mb 52f 71f
2:00am 3 3 mph 1010.3mb 52f 71f
1:54am 1 3 mph 1010.4mb 52f 71f
1:48am 2 3 mph 1010.5mb 52f -
1:42am 1 2 mph 1010.6mb 52f -
1:36am 1 3 mph 1011mb 52f -
1:30am  -  0 mph 1011.2mb 52f 71f
1:24am  -  1 mph 1011.2mb 52f 71f
1:18am  -  2 mph 1011.1mb 52f 71f
1:12am 1 2 mph 1011mb 52f 72f
1:06am 1 3 mph 1010.9mb 53f 71f
1:00am 3 5 mph 1010.7mb 53f 71f
12:54am 1 8 mph 1011.1mb 53f 72f
12:48am 2 8 mph 1011.5mb 53f 72f
12:42am 8 13 mph 1011.4mb 52f 72f
12:36am 2 5 mph 1011mb 52f 72f
12:30am 5 6 mph 1010.7mb 53f 72f
12:24am 3 9 mph 1010.6mb 54f 72f
12:18am 3 6 mph 1010.5mb 52f 72f
12:12am 3 7 mph 1010.5mb 52f 72f
12:06am 2 8 mph 1010.5mb 54f 72f
12:00am 5 10 mph 1010.5mb 55f 72f
Thu 05/18 11:54pm 6 9 mph 1010.5mb 55f 72f
11:48pm 6 8 mph 1010.6mb 57f 71f
11:42pm 6 9 mph 1010.5mb 55f 71f
11:36pm 6 8 mph 1010.5mb 54f 71f
11:30pm 5 8 mph 1010.4mb 56f 71f
11:24pm 6 10 mph 1010.4mb 55f 71f
11:18pm 7 9 mph 1010.4mb 55f 71f
11:12pm 3 8 mph 1010.4mb 55f 71f
11:06pm 5 8 mph 1010.5mb 55f 71f
11:00pm 5 7 mph 1010.4mb 55f 71f
10:54pm 3 7 mph 1010.4mb 55f 71f
10:48pm 3 7 mph 1010.4mb 55f 71f
10:42pm 6 7 mph 1010.5mb 55f 71f
10:36pm 6 9 mph 1010.5mb 55f 71f
10:30pm 7 11 mph 1010.4mb 55f 71f
10:24pm 5 8 mph 1010.4mb 55f 71f
10:18pm 6 8 mph 1010.3mb 55f 71f
10:12pm 6 8 mph 1010.3mb 54f 71f
10:06pm 5 8 mph 1010.2mb 54f 71f
10:00pm 6 9 mph 1010.2mb 53f 71f
9:54pm 6 11 mph 1010.3mb 55f 71f
9:48pm 8 13 mph 1010.2mb 54f 72f
9:42pm 6 11 mph 1010.2mb 54f 72f
9:36pm 5 14 mph 1010.2mb 54f 72f
9:30pm 8 16 mph 1010.1mb 54f 72f
9:24pm 9 14 mph 1010mb 54f 72f
9:18pm 7 14 mph 1010mb 54f 73f
9:12pm 8 11 mph 1010mb 54f 72f
9:06pm 10 15 mph 1009.9mb 55f 72f
9:00pm 8 21 mph 1009.9mb 54f 73f
8:54pm 9 17 mph 1009.9mb 53f 74f
8:48pm 8 11 mph 1009.9mb 53f 74f
8:42pm 8 13 mph 1009.8mb 54f 74f
8:36pm 14 16 mph 1009.9mb 54f 74f
8:30pm 10 15 mph 1009.9mb 53f 74f
8:24pm 9 16 mph 1009.9mb 53f 75f
8:18pm 13 17 mph 1009.9mb 53f 75f
8:12pm 11 16 mph 1009.8mb 53f 76f
8:06pm 11 18 mph 1009.8mb 53f 76f
8:00pm 14 20 mph 1009.8mb 54f 76f
7:54pm 14 16 mph 1009.8mb 54f 77f
7:48pm 10 16 mph 1009.8mb 53f 78f
7:42pm 10 17 mph 1009.9mb 54f 78f
7:36pm 14 20 mph 1009.9mb 54f 79f
7:30pm 9 18 mph 1009.9mb 53f 79f
7:24pm 10 16 mph 1009.7mb 53f 80f
7:18pm 10 17 mph 1009.7mb 52f 80f
7:12pm 11 17 mph 1009.6mb 52f 80f
7:06pm 15 21 mph 1009.6mb 52f 81f
7:00pm 11 18 mph 1009.7mb 52f 81f
6:54pm 13 17 mph 1009.7mb 53f 81f
6:48pm 11 20 mph 1009.7mb 53f 81f
6:42pm 13 15 mph 1009.7mb 53f 82f
6:36pm 9 14 mph 1009.7mb 53f 82f
6:30pm 10 15 mph 1009.7mb 52f 82f
6:24pm 9 21 mph 1009.6mb 53f 83f
6:18pm 11 16 mph 1009.6mb 53f 84f
6:12pm 11 15 mph 1009.6mb 53f 84f
6:06pm 9 15 mph 1009.7mb 52f 85f
6:00pm 10 16 mph 1009.7mb 52f 85f
5:54pm 10 15 mph 1009.8mb 52f 85f
5:48pm 10 15 mph 1009.8mb 52f 85f
5:42pm 10 16 mph 1009.9mb 52f 85f
5:36pm 10 16 mph 1009.9mb 52f 85f
5:30pm 11 18 mph 1010mb 51f 85f
5:24pm 10 15 mph 1010mb 51f 86f
5:18pm 11 17 mph 1010mb 52f 85f
5:12pm 10 18 mph 1010mb 51f 86f
5:06pm 11 18 mph 1010.1mb 52f 87f
5:00pm 9 14 mph 1010.1mb 51f 87f
4:54pm 9 16 mph 1010mb 51f 88f